Date,TemperatureHighF,TemperatureAvgF,TemperatureLowF,DewpointHighF,DewpointAvgF,DewpointLowF,HumidityHigh,HumidityAvg,HumidityLow,PressureMaxIn,PressureMinIn,WindSpeedMaxMPH,WindSpeedAvgMPH,GustSpeedMaxMPH,PrecipitationSumIn
2013-1-1,29.3,22.8,16.4,28.0,18.2,12.9,95,83,70,30.33,30.16,13,1,13,0.00
2013-1-2,33.2,21.1,12.1,19.1,14.2,10.0,92,76,44,30.35,30.24,6,0,6,0.00
2013-1-3,39.2,29.6,18.3,28.4,23.6,15.7,94,79,61,30.45,30.27,16,2,16,0.01
2013-1-4,40.4,30.4,21.2,26.4,23.0,18.7,92,75,52,30.49,30.35,13,1,13,0.00
2013-1-5,45.7,37.3,25.7,33.2,27.5,20.8,83,68,53,30.36,30.13,12,1,12,0.05
2013-1-6,42.3,32.5,21.9,33.9,25.6,19.3,90,76,59,30.44,30.11,18,4,21,0.00
2013-1-7,45.8,33.5,21.1,30.0,25.5,18.4,93,73,51,30.45,30.19,10,1,11,0.00
2013-1-8,53.5,41.4,27.6,37.7,29.3,23.8,87,64,36,30.25,30.12,10,0,10,0.00
2013-1-9,55.8,48.3,41.3,44.4,37.9,32.8,89,68,45,30.50,30.20,13,1,13,0.01
2013-1-10,57.2,46.9,42.4,56.8,42.9,31.8,99,87,61,30.48,29.80,15,2,16,0.54
2013-1-11,63.7,55.8,49.6,56.8,50.0,47.4,99,82,60,29.90,29.78,18,1,18,0.00
2013-1-12,56.9,47.5,31.5,51.0,41.2,30.0,95,80,56,29.98,29.81,14,2,14,0.45
2013-1-13,31.6,24.9,17.0,30.3,21.4,14.2,95,87,79,30.43,29.94,15,2,16,0.00
2013-1-14,26.2,20.3,15.8,18.4,15.6,13.2,93,82,67,30.58,30.42,7,1,7,0.00
2013-1-15,29.6,23.5,15.0,23.3,18.9,12.6,94,83,69,30.49,30.20,8,0,9,0.00
2013-1-16,42.0,29.7,17.3,26.1,21.2,15.4,93,72,45,30.23,30.07,10,1,18,0.01
2013-1-17,40.3,33.4,23.3,30.4,25.8,20.3,89,74,51,30.53,30.17,15,2,15,0.00
2013-1-18,55.4,39.1,21.8,29.6,25.1,19.3,92,61,33,30.55,30.16,15,1,15,0.00
2013-1-19,64.3,51.4,41.3,37.4,33.2,28.6,63,51,35,30.17,29.93,21,4,21,0.00
2013-1-20,46.4,31.2,24.7,32.3,17.7,10.6,79,57,47,30.38,30.15,21,2,21,0.00
2013-1-21,24.7,19.9,15.1,14.9,4.9,-3.0,75,53,35,30.46,30.35,22,5,22,0.00
2013-1-22,17.9,15.1,12.8,11.9,7.1,1.0,89,71,54,30.56,30.44,7,1,7,0.00
2013-1-23,40.7,26.7,12.7,26.1,18.2,10.3,92,72,54,30.45,30.20,11,1,12,0.01
2013-1-24,28.2,22.1,15.5,18.4,9.7,3.4,74,59,50,30.67,30.31,16,2,21,0.00
2013-1-25,43.2,33.8,27.0,23.8,18.6,11.1,60,53,45,30.33,30.16,15,2,15,0.00
2013-1-26,38.9,31.5,23.2,23.7,17.9,13.0,75,58,39,30.45,30.28,10,1,10,0.00
2013-1-27,51.5,37.9,30.0,50.1,34.1,20.2,97,87,65,30.35,29.99,17,2,17,0.17
2013-1-28,74.0,62.6,51.0,62.8,58.3,49.3,97,86,66,30.00,29.84,13,1,13,0.00
2013-1-29,67.3,61.7,52.8,61.7,58.5,52.3,98,90,78,29.84,29.42,22,2,22,1.28
2013-1-30,52.9,39.5,26.9,52.4,34.8,17.6,98,83,65,29.95,29.36,30,7,30,0.17
2013-1-31,31.9,24.7,12.0,24.2,15.2,0.3,84,67,52,30.45,29.95,24,7,27,0.00